Regional Weather Roundup
Issued by NWS

Home | Current Version | Previous Version | Text Only | Print | Product List | Glossary Off
Versions: 1 2 3 4 5 6 7 8 9 10 11 12 13 14 15 16 17 18 19 20 21 22 23 24 25

000
ASUS45 KCYS 232310
RWRWY

WYOMING REGIONAL WEATHER ROUNDUP
NATIONAL WEATHER SERVICE CHEYENNE WY
500 PM MDT THU OCT 23 2014

NOTE:  "FAIR" INDICATES FEW OR NO CLOUDS BELOW 12,000 FEET
WITH NO SIGNIFICANT WEATHER AND/OR OBSTRUCTIONS TO VISIBILITY.

WYZ001-240000-
YELLOWSTONE NATIONAL PARK

CITY           SKY/WX    TMP DP  RH WIND       PRES   REMARKS
LK YELLOWSTONE   N/A     46  26  45 VRB6      30.16F
W YELLOWSTONE  NOT AVBL

$$
WYZ002>013-054>058-071-098>099-240000-
NORTHERN WYOMING

CITY           SKY/WX    TMP DP  RH WIND       PRES   REMARKS
JACKSON        CLOUDY    57  27  30 S15       30.11S
CODY           MOSUNNY   64  25  22 W8        29.96R
GREYBULL       PTSUNNY   67  26  21 NW3       29.90R
WORLAND        MOSUNNY   69  30  23 CALM      29.90R
SHERIDAN       CLOUDY    64  38  38 SW5       29.89S
BUFFALO        CLOUDY    65  23  20 CALM      29.95S
GILLETTE       PTCLDY    59  32  36 CALM      29.92F
HULETT         FAIR      63  27  25 W3        29.94
NEWCASTLE      FAIR      63  27  25 N3        29.93

$$
WYZ014>020-022>026-101>103-240000-
CENTRAL WYOMING

CITY           SKY/WX    TMP DP  RH WIND       PRES   REMARKS
BIG PINEY      PTSUNNY   58  22  24 W17       30.16R
PINEDALE       MOCLDY    55  27  33 CALM      30.18
DUBOIS         FAIR      54  21  28 MISG      30.08R
LANDER         PTSUNNY   64  32  30 SE3       29.99S
RIVERTON       PTSUNNY   60  25  26 NE6       30.00S
CASPER         PTSUNNY   65  22  19 SW15      30.00S
DOUGLAS        MOSUNNY   64  26  23 W7        30.00F

$$
WYZ021-027>030-104>119-240000-
SOUTHERN WYOMING

CITY           SKY/WX    TMP DP  RH WIND       PRES   REMARKS
EVANSTON       PTSUNNY   62  23  22 W20       30.17S
KEMMERER       MOCLDY    55  21  26 W21       30.17S
FORT BRIDGER   FAIR      64  22  19 W13G22    30.19S
ROCK SPRINGS   MOSUNNY   60  27  28 S10       30.14F
DIXON          FAIR      62  31  31 SW9       30.20S
RAWLINS        PTSUNNY   60  29  30 SW21      30.15S
SARATOGA       FAIR      59  30  33 SW14G23   30.19S
LARAMIE        CLOUDY    57  25  29 W10       30.17S
CHEYENNE       PTSUNNY   64  33  31 S12       30.11F
TORRINGTON     SUNNY     72  29  20 W14G22    29.97F
PINE BLUFFS    FAIR      61  34  36 S8        30.07F

$$



USA.gov is the U.S. government's official web portal to all federal, state and local government web resources and services.